{"data":{"norad_id":45676,"epoch":"2026-09-19T22:54:09.043776Z","epoch_age_seconds":65387,"freshness":"FRESH","line1":"1 45676U 20035V   26262.95427134  .00044312  00000+0  95269-3 0  9998","line2":"2 45676  53.1514 234.5085 0003005  63.9642 296.1674 15.44243873348577","mean_motion":15.44243873,"eccentricity":0.0003005,"inclination_deg":53.1514,"raan_deg":234.5085,"arg_perigee_deg":63.9642,"mean_anomaly_deg":296.1674,"bstar":0.00095269,"rev_number":34857,"period_min":93.249520051682,"perigee_km":431.55378099326,"apogee_km":435.64763535587,"semimajor_km":6811.7377081746,"source":"CELESTRAK","updated_at":"2026-09-20T09:00:38.451791Z"}}